Regional Weather Roundup
Issued by NWS Kansas City/Pleasant Hill, MO

Home | Current Version | Previous Version | Graphics & Text | Print | Product List | Glossary Off
Versions: 1 2 3 4 5 6 7 8 9 10 11 12 13 14 15 16 17 18 19 20 21 22 23 24 25 26 27 28 29 30 31 32 33 34 35 36 37 38 39 40 41 42 43 44 45 46 47 48 49 50

000
ASUS43 KEAX 010210
RWREAX

WEATHER ROUNDUP FOR EASTERN KANSAS AND NORTHWEST MISSOURI
NATIONAL WEATHER SERVICE KANSAS CITY/PLEASANT HILL MO
900 PM CDT FRI JUL 31 2015

KSZ040-057-103>105-MOZ028-029-037-043-010300-
...KANSAS CITY METROPOLITAN AREA...

CITY           SKY/WX    TMP DP  RH WIND       PRES   REMARKS
K.C. INTL      PTCLDY    81  68  64 CALM      30.06R
K.C. DOWNTOWN  CLEAR     85  68  56 CALM      30.03S
LEES SUMMIT    CLEAR     83  65  54 W3        30.06R
OLATHE - IXD   CLEAR     81  67  62 CALM      30.06S
OLATHE - OJC   CLEAR     81  68  64 CALM      30.05S
LAWRENCE       CLEAR     76  72  87 CALM      30.04S

$$

MOZ001>008-011>017-020>025-030>033-038>040-044>046-053-054-010300-
...NORTHERN AND CENTRAL MISSOURI...

CITY           SKY/WX    TMP DP  RH WIND       PRES   REMARKS
ST. JOSEPH       N/A     82  75  79 S5        30.04S
MOSBY          CLEAR     79  72  78 CALM      30.04S
WARRENSBURG    CLEAR     81  64  57 S3        30.04S
WHITEMAN AFB   CLEAR     80  66  63 S3        30.04S
CLINTON        CLEAR     79  72  78 CALM      30.05F
SEDALIA        CLEAR     82  61  48 SW5       30.06S
WARSAW         NOT AVBL
CHILLICOTHE      N/A     79  75  87 CALM      30.04R
KIRKSVILLE     CLOUDY    78  71  79 SW3       30.04S

$$

MOZ041-047>049-056>058-063>065-088>090-097-010300-
...EASTERN AND SOUTHERN MISSOURI...

CITY           SKY/WX    TMP DP  RH WIND       PRES   REMARKS
ST. LOUIS INTL PTCLDY    83  62  49 CALM      30.02S
SPIRIT OF STL  PTCLDY    76  70  82 CALM      30.01R
COLUMBIA       CLEAR     77  68  73 S3        30.04S
JEFFERSON CITY CLEAR     78  66  66 CALM      30.03R
ROLLA          CLEAR     75  63  66 CALM      30.05S
OSAGE BEACH    CLEAR     77  70  78 CALM      30.06S
SPRINGFIELD    CLEAR     76  62  62 SW5       30.09R
BRANSON        PTCLDY    75  66  73 CALM      30.11R
JOPLIN         CLEAR     76  63  64 S7        30.08R
WEST PLAINS    CLEAR     74  66  76 W3        30.10R

$$

IAZ060-094-KSZ022-034>040-054-083-096-NEZ052-066-093-010300-
...KANSAS...SOUTHEAST NEBRASKA AND IOWA...

CITY           SKY/WX    TMP DP  RH WIND       PRES   REMARKS
TOPEKA         CLEAR     82  72  71 CALM      30.04S
MANHATTAN      CLEAR     82  72  71 CALM      30.04S
EMPORIA        CLEAR     81  70  69 SE5       30.06S
CHANUTE        CLEAR     79  71  76 S7        30.07R
WICHITA        PTCLDY    84  69  60 SE7       30.07R
OMAHA          MOCLDY    79  74  84 N6        30.03R
LINCOLN        CLOUDY    76  63  64 E6        30.05R
FALLS CITY     MOCLDY    82  74  76 SW6       30.04R
LAMONI         CLOUDY    73  63  70 NE3       30.05S
DES MOINES     PTCLDY    81  61  50 E6        30.03S

$$



USA.gov is the U.S. government's official web portal to all federal, state and local government web resources and services.